ARIANE 44LP DEB, 33547

Orbit data source: Space-Track

ARIANE 44LP DEB, 33547 is space debris in HEO originally from a launch on Sun, 11 Dec 1988 UTC launched from the French Guiana (FRGUI). Debris objects in space refer to the collection of defunct objects orbiting the Earth. Examples of debris include non-operational satellites, rocket bodies, and fragments generated from explosions, collisions, or faulty payload assembly.

Loading next visibility...
Identifier
33547, 1988-109W
Orbit
HEO
Country
Flag of FRFR
Related business
Manufacturer
Unknown
Mission
Spacecraft
Bus & Motor
Unknown
Mass
Unknown
Launch date (UTC)
1988-12-11 (38 years ago)
Launch vehicle
Unknown
Launch site
French Guiana (FRGUI)
Object type
Payload
Rocket body
Debris
Shape & HBR
Unknown shape, 0.2 m
Radar Cross Section
Medium (>0.1 m² and <1 m²)

Expand to show TLE details & history
Last TLE update: 2 weeks ago

TLE from 2 weeks ago
0 ARIANE 44LP DEB
1 33547U 88109W   26159.25528433 -.00000356  00000-0 -52225-2 0  9997
2 33547   6.4064 220.7508 7029744  88.5257 343.8364  2.40117134224176
Epoch: 2026-06-08T06:07Z
TLE epoch observation values (Epoch: 2026-06-08T06:07:36.566Z)
Latitude
0.00001°
Longitude
-127.46887°
Altitude
5,277.76 km
Speed
7.174 km/s
True Right ascension
14h 44m 18s
True Declination
0° 00' 00"
Sunlit
Object was in daylight at epoch
Visualization orbit readout
Latitude
Unknown
Longitude
Unknown
Altitude
Unknown
Speed
Unknown
Apparent Right ascension
Unknown
Apparent Declination
Unknown
Sunlit
N/A
Visualization observer readout
Local Sidereal Time
01:06:58
Azimuth
Unknown
Elevation
Unknown
Doppler factor
Unknown
Orbital elements
Apogee altitude
33,747.519 km
Perigee altitude
620.41 km
Semi-major axis
23,562.102 km
Eccentricity
0.70297
Inclination
6.4064°
RAAN
220.7508°
Arg. of periapsis
88.5257°
True anomaly
271.484°
Mean anomaly
343.8364°
Eccentric anomaly
315.71208°
Mean motion
0.6001 °/min
Orbital period
599.9 mins
BSTAR
-0.0052225
Loading maneuver chart data...
Computing Atmospheric mass density...
Loading historical data...
Loading historical data...
Loading historical data...
Loading historical data...
Loading historical data...
Loading historical data...
Loading historical data...

Documentation

Showing up to 5 results
|